Location: Unspecified
(0.0000°N, 0.0000°E)
Time: 10:40:59
(UTC+01:00)

Cosmos 1953 Rocket - Visible Passes

Search period start: 11 December 2017 00:00
Search period end: 21 December 2017 00:00
Orbit: 605 x 634 km, 82.5° (Epoch: 10 December)

Date Brightness Start Highest point End Pass type
(mag) Time Alt. Az. Time Alt. Az. Time Alt. Az.
16 Dec 6.1 21:16:15 10° S 21:16:50 14° S 21:16:50 14° S visible
17 Dec 6.2 21:34:02 10° SSW 21:34:58 16° SSW 21:34:58 16° SSW visible
18 Dec 5.7 20:15:17 10° SE 20:15:55 12° SE 20:15:55 12° SE visible
18 Dec 6.7 21:52:39 10° SW 21:53:08 12° SW 21:53:08 12° SW visible
19 Dec 4.8 20:31:34 10° SSE 20:34:08 28° SE 20:34:08 28° SE visible
20 Dec 3.9 20:48:46 10° S 20:52:24 60° S 20:52:24 60° S visible
